[[{"header":{"parameterUnit":"m.s-1","parameterCategory":1,"la1":30.2991,"la2":30.254,"lo1":-89.0895,"lo2":-89.0444,"dy":0.0017,"dx":0.0017,"nx":28,"ny":28,"refTime":"2025-04-03T21:00:00:Z","depth":0,"parameterNumber":2,"parameterNumberName":"U-component_of_WINDS"},"data":[0,0,0,0,0,0,0,0,0,0,0,0,0,0,0,0,0,0,0,0,0,0,0,0,0,0,0,0,0,0,0,0,0,0,0,0,0,0,0,0,0,0,0,0,0,0,0,0,0,0,0,0,0,0,0,0,0,0,-4.4205,-4.4207,0,-4.4385,-4.4387,-4.4389,-4.444,-4.4439,-4.4438,-4.4437,-4.4621,-4.4627,-4.4633,0,0,0,0,0,0,0,0,0,0,0,0,0,-4.3905,-4.3911,-4.4205,-4.4207,-4.4209,-4.4385,-4.4388,-4.439,-4.444,-4.4439,-4.4438,-4.4437,-4.4619,-4.4626,-4.4633,0,0,0,0,0,0,0,0,0,0,0,0,0,-4.4055,-4.3912,-4.4205,-4.4256,-4.4262,-4.4385,-4.4388,-4.4391,-4.444,-4.4439,-4.4437,-4.4436,-4.4617,-4.4626,-4.4634,-4.4719,0,0,-4.4661,-4.4665,0,0,0,0,0,0,0,0,-4.4047,-4.4066,-4.4246,-4.4252,-4.426,-4.4389,-4.435,-4.4501,-4.4441,-4.4373,-4.4437,-4.4435,-4.4545,-4.456,-4.4597,-4.4727,-4.4735,-4.4662,-4.4667,-4.4671,-4.4673,0,0,0,0,0,0,0,-4.4036,-4.4059,-4.4276,-4.4248,-4.4257,-4.427,-4.429,-4.4378,-4.4465,-4.4379,-4.4383,-4.4403,-4.4549,-4.4588,-4.4602,-4.4738,-4.4662,-4.4669,-4.4675,-4.4678,-4.4948,-4.495,0,0,0,0,0,0,-4.4017,-4.405,-4.4271,-4.4282,-4.4147,-4.4277,-4.4299,-4.4349,-4.4464,-4.4481,-4.4404,-4.4405,-4.4574,-4.4591,-4.4608,-4.4715,-4.4671,-4.4679,-4.4684,-4.4946,-4.4948,-4.495,0,0,0,0,0,0,-4.4011,-4.4036,-4.4263,-4.4167,-4.4197,-4.4283,-4.4339,-4.4353,-4.4393,-4.4484,-4.45,-4.4429,-4.4573,-4.4596,-4.4691,-4.4722,-4.4683,-4.4691,-4.4944,-4.4947,-4.4949,-4.4928,0,0,0,0,0,0,-4.4002,-4.4034,-4.4066,-4.4167,-4.4202,-4.4343,-4.4341,-4.4358,-4.4408,-4.441,-4.4511,-4.4526,-4.4574,-4.4678,-4.47,-4.4733,-4.4698,-4.4941,-4.4945,-4.4949,-4.4926,-4.4929,-4.4932,0,0,0,0,0,-4.3991,-4.4053,-4.4067,-4.4094,-4.4244,-4.4344,-4.4364,-4.4418,-4.441,-4.4444,-4.4503,-4.4523,-4.4715,-4.4687,-4.4712,-4.4749,-4.494,-4.4944,-4.4948,-4.4925,-4.4929,-4.4932,0,0,0,0,0,0,-4.3952,-4.4067,-4.4084,-4.4181,-4.4252,-4.4353,-4.4396,-4.442,-4.4495,-4.4495,-4.4558,-4.4581,-4.4671,-4.472,-4.4687,-4.4837,-4.4828,-4.4838,-4.4801,-4.4806,-4.4809,-4.4795,-4.4705,0,0,0,0,0,-4.3955,-4.4026,-4.4123,-4.4199,-4.4234,-4.4309,-4.4354,-4.439,-4.4467,-4.4497,-4.4563,-4.4637,-4.4714,-4.4763,-4.4839,-4.4934,-4.4957,-4.4972,-4.4975,-4.4977,-4.4984,-4.5039,-4.5046,-4.4965,-4.4965,-4.4964,0,0,-4.3961,-4.4032,-4.4073,-4.4193,-4.4252,-4.4325,-4.4334,-4.441,-4.4465,-4.4509,-4.4602,-4.4654,-4.474,-4.4836,-4.4881,-4.4879,-4.5012,-4.4983,-4.4984,-4.499,-4.5044,-4.5051,-4.5058,-4.4967,-4.4967,-4.4966,0,0,-4.4009,-4.407,-4.414,-4.42,-4.4291,-4.4341,-4.4358,-4.4455,-4.4491,-4.4586,-4.4621,-4.4687,-4.4819,-4.4879,-4.4927,-4.5001,-4.5022,-4.5024,-4.5039,-4.5092,-4.5098,-4.5104,-4.5129,-4.5138,-4.5031,-4.5031,-4.5031,0,-4.4004,-4.4115,-4.4173,-4.4248,-4.4299,-4.4344,-4.4415,-4.4471,-4.4581,-4.4616,-4.4613,-4.4779,-4.4841,-4.4951,-4.4969,-4.5007,-4.5028,-4.5011,-4.5092,-4.5099,-4.5105,-4.513,-4.514,-4.503,-4.503,-4.503,-4.503,0,-4.4105,-4.4182,-4.4227,-4.4333,-4.4391,-4.4463,-4.4533,-4.4584,-4.4615,-4.4666,-4.4763,-4.4839,-4.4931,-4.4961,-4.4992,-4.5076,-4.5072,-4.508,-4.5072,-4.5112,-4.5136,-4.5146,-4.5029,-4.503,-4.503,-4.503,0,0,-4.4131,-4.4269,-4.4285,-4.4334,-4.4438,-4.4499,-4.4574,-4.4665,-4.4707,-4.4783,-4.4848,-4.496,-4.4968,-4.5023,-4.5062,-4.5108,-4.516,-4.511,-4.5113,-4.5116,-4.5258,-4.525,-4.526,-4.5177,-4.5179,-4.5181,-4.525,0,-4.419,-4.4326,-4.4381,-4.4492,-4.4563,-4.4608,-4.4674,-4.4745,-4.4795,-4.4864,-4.4919,-4.4997,-4.5003,-4.5036,-4.5084,-4.5144,-4.5189,-4.514,-4.5237,-4.524,-4.5211,-4.5273,-4.5264,-4.5326,-4.526,-4.5262,-4.5263,0,-4.4277,-4.4354,-4.4471,-4.4568,-4.46,-4.4658,-4.4746,-4.4811,-4.4894,-4.4927,-4.4989,-4.5026,-4.5108,-4.5096,-4.521,-4.5175,-4.5218,-4.5254,-4.5258,-4.5267,-4.5252,-4.5282,-4.5347,-4.5355,-4.5279,-4.5278,-4.5277,0,-4.4283,-4.4416,-4.4503,-4.4544,-4.4659,-4.4699,-4.4749,-4.483,-4.4881,-4.4959,-4.4993,-4.508,-4.5126,-4.5193,-4.5252,-4.5238,-4.536,-4.5353,-4.5389,-4.5388,-4.5411,-4.5408,-4.5482,-4.5442,-4.5442,-4.5442,-4.5442,0,-4.4342,-4.4412,-4.4507,-4.456,-4.464,-4.4704,-4.4781,-4.4835,-4.4907,-4.4972,-4.5017,-4.5077,-4.5153,-4.5223,-4.5271,-4.5357,-4.5378,-4.5407,-4.5419,-4.5402,-4.5398,-4.543,-4.5427,-4.5444,-4.5444,-4.5443,-4.5443,0,-4.436,-4.4427,-4.4525,-4.4627,-4.4654,-4.4708,-4.4796,-4.485,-4.4903,-4.4985,-4.5008,-4.5091,-4.5176,-4.5243,-4.5354,-4.5386,-4.5477,-4.549,-4.5448,-4.5454,-4.5486,-4.5481,-4.5581,-4.5597,-4.5547,-4.5548,-4.5548,0,-4.4393,-4.4448,-4.4556,-4.4602,-4.4652,-4.4727,-4.478,-4.4846,-4.4899,-4.4999,-4.5041,-4.5129,-4.5203,-4.5337,-4.5408,-4.5494,-4.5509,-4.5538,-4.5521,-4.5503,-4.5508,-4.5503,-4.5508,-4.5539,-4.5539,-4.5539,-4.5539,0,-4.4443,-4.4474,-4.4548,-4.4635,-4.4697,-4.4769,-4.4841,-4.4877,-4.4956,-4.5014,-4.5102,-4.516,-4.5274,-4.5361,-4.5454,-4.5506,-4.5536,-4.5544,-4.5557,-4.5539,-4.5512,-4.5526,-4.5452,-4.5541,-4.5541,-4.5541,-4.5541,-4.554,-4.4469,-4.452,-4.4604,-4.4686,-4.4748,-4.4815,-4.487,-4.4931,-4.5005,-4.5103,-4.5138,-4.5228,-4.5311,-4.544,-4.5493,-4.5565,-4.5566,-4.5585,-4.5589,-4.5592,-4.559,-4.5503,-4.5582,-4.5582,-4.5582,-4.5582,-4.5582,0,-4.4521,-4.4578,-4.4653,-4.4753,-4.4817,-4.4841,-4.4923,-4.4975,-4.5054,-4.5129,-4.5201,-4.5303,-4.5388,-4.5466,-4.5556,-4.5598,-4.5614,-4.5619,-4.5616,-4.5627,-4.5584,-4.5563,-4.5605,-4.5605,-4.5605,-4.5605,-4.5605,-4.5605,-4.4555,-4.4642,-4.4683,-4.4802,-4.4859,-4.4947,-4.4992,-4.5054,-4.5114,-4.5225,-4.5297,-4.5347,-4.5424,-4.552,-4.56,-4.5621,-4.5651,-4.5652,-4.5676,-4.5634,-4.563,-4.5627,-4.5608,-4.5659,-4.5659,-4.5714,-4.5714,-4.5715]},{"header":{"parameterUnit":"m.s-1","parameterCategory":1,"la1":30.2991,"la2":30.254,"lo1":-89.0895,"lo2":-89.0444,"dy":0.0017,"dx":0.0017,"nx":28,"ny":28,"refTime":"2025-04-03T21:00:00:Z","depth":0,"parameterNumber":3,"parameterNumberName":"V-component_of_WINDS"},"data":[0,0,0,0,0,0,0,0,0,0,0,0,0,0,0,0,0,0,0,0,0,0,0,0,0,0,0,0,0,0,0,0,0,0,0,0,0,0,0,0,0,0,0,0,0,0,0,0,0,0,0,0,0,0,0,0,0,0,4.661,4.6611,0,4.6716,4.6717,4.6718,4.6747,4.6747,4.6746,4.6746,4.6851,4.6854,4.6857,0,0,0,0,0,0,0,0,0,0,0,0,0,4.6432,4.6435,4.661,4.6611,4.6613,4.6716,4.6717,4.6719,4.6747,4.6747,4.6746,4.6745,4.6849,4.6853,4.6857,0,0,0,0,0,0,0,0,0,0,0,0,0,4.6521,4.6436,4.661,4.664,4.6643,4.6715,4.6717,4.6719,4.6748,4.6747,4.6746,4.6745,4.6848,4.6853,4.6858,4.6907,0,0,4.6873,4.6876,0,0,0,0,0,0,0,0,4.6516,4.6527,4.6634,4.6638,4.6642,4.6718,4.6693,4.6782,4.6748,4.6708,4.6746,4.6744,4.6807,4.6815,4.6837,4.6912,4.6916,4.6874,4.6877,4.6879,4.688,0,0,0,0,0,0,0,4.651,4.6523,4.6652,4.6635,4.664,4.6648,4.6659,4.671,4.6761,4.6711,4.6714,4.6726,4.6809,4.6832,4.684,4.6918,4.6874,4.6878,4.6881,4.6883,4.7043,4.7044,0,0,0,0,0,0,4.6499,4.6518,4.6648,4.6655,4.6575,4.6651,4.6664,4.6694,4.6761,4.677,4.6727,4.6727,4.6824,4.6834,4.6843,4.6908,4.6879,4.6884,4.6887,4.7042,4.7043,4.7045,0,0,0,0,0,0,4.6495,4.651,4.6644,4.6587,4.6605,4.6655,4.6689,4.6697,4.672,4.6772,4.6781,4.6741,4.6823,4.6836,4.6892,4.6912,4.6886,4.6891,4.704,4.7042,4.7044,4.7036,0,0,0,0,0,0,4.6489,4.6508,4.6527,4.6587,4.6608,4.6691,4.669,4.6699,4.6729,4.673,4.6788,4.6797,4.6824,4.6885,4.6897,4.6918,4.6894,4.7039,4.7041,4.7043,4.7034,4.7037,4.7039,0,0,0,0,0,4.6483,4.6519,4.6528,4.6544,4.6633,4.6692,4.6704,4.6735,4.673,4.675,4.6785,4.6795,4.6908,4.689,4.6905,4.6927,4.7038,4.704,4.7043,4.7033,4.7037,4.7039,0,0,0,0,0,0,4.6458,4.6527,4.6538,4.6595,4.6638,4.6697,4.6723,4.6737,4.6781,4.678,4.6817,4.6829,4.6883,4.6911,4.689,4.6981,4.6973,4.6979,4.6961,4.6964,4.6966,4.6959,4.6899,0,0,0,0,0,4.646,4.6503,4.6561,4.6605,4.6627,4.6671,4.6698,4.6719,4.6764,4.6782,4.682,4.6863,4.6909,4.6938,4.6982,4.7039,4.7053,4.7062,4.7064,4.7066,4.7071,4.7106,4.7111,4.7054,4.7054,4.7054,0,0,4.6462,4.6506,4.653,4.6602,4.6637,4.6682,4.6686,4.6732,4.6765,4.6789,4.6845,4.6875,4.6925,4.6983,4.701,4.7007,4.709,4.707,4.7071,4.7074,4.7109,4.7115,4.712,4.7055,4.7055,4.7055,0,0,4.649,4.6527,4.6569,4.6606,4.6661,4.6691,4.6702,4.676,4.6781,4.6839,4.6858,4.6899,4.6975,4.7012,4.704,4.7087,4.7099,4.71,4.7112,4.7146,4.7151,4.7155,4.7174,4.718,4.7104,4.7104,4.7104,0,4.6486,4.6554,4.6589,4.6636,4.6667,4.6693,4.6738,4.6771,4.6837,4.6859,4.6855,4.6955,4.6991,4.7059,4.7071,4.7092,4.7106,4.7093,4.7148,4.7152,4.7157,4.7175,4.7182,4.7104,4.7104,4.7104,4.7104,0,4.6548,4.6595,4.6623,4.6689,4.6724,4.6769,4.6811,4.6842,4.6861,4.6892,4.6952,4.6996,4.7052,4.7069,4.7086,4.7141,4.7138,4.714,4.7134,4.7162,4.718,4.7187,4.7104,4.7104,4.7104,4.7104,0,0,4.6561,4.6649,4.6659,4.6691,4.6755,4.6792,4.6839,4.6896,4.6923,4.6968,4.7009,4.7076,4.7081,4.7113,4.7135,4.7165,4.7202,4.7164,4.7166,4.7171,4.7267,4.7265,4.7273,4.7211,4.7212,4.7213,4.7264,0,4.6598,4.6685,4.6719,4.6789,4.6835,4.6862,4.6903,4.6948,4.6978,4.7022,4.7055,4.7103,4.7104,4.7124,4.7155,4.7191,4.7222,4.7188,4.725,4.7252,4.7238,4.7282,4.7279,4.7325,4.727,4.7272,4.7273,0,4.6653,4.6702,4.6777,4.684,4.686,4.6897,4.6953,4.6994,4.7045,4.7066,4.7104,4.7126,4.7177,4.7168,4.724,4.7216,4.7244,4.7266,4.7269,4.7276,4.7264,4.7292,4.7339,4.7347,4.7283,4.7283,4.7282,0,4.6657,4.6742,4.6799,4.6825,4.6899,4.6924,4.6956,4.7007,4.704,4.7089,4.7111,4.7165,4.7195,4.7236,4.7272,4.7261,4.7342,4.7334,4.7361,4.7361,4.7377,4.7376,4.7431,4.7393,4.7393,4.7393,4.7393,0,4.6696,4.6741,4.6803,4.6837,4.689,4.693,4.6981,4.7014,4.706,4.7103,4.7129,4.7168,4.7213,4.7259,4.7287,4.7344,4.7357,4.7375,4.7382,4.7374,4.7372,4.7393,4.7391,4.7395,4.7394,4.7394,4.7394,0,4.6709,4.6752,4.6816,4.6882,4.69,4.6936,4.6993,4.7028,4.7062,4.7115,4.713,4.7182,4.7238,4.7278,4.7348,4.7368,4.743,4.7436,4.7413,4.7417,4.7442,4.744,4.7514,4.7526,4.7478,4.7479,4.7479,0,4.6731,4.6768,4.6839,4.687,4.6903,4.6952,4.6987,4.7028,4.7064,4.7128,4.7156,4.7214,4.7262,4.7349,4.7393,4.7448,4.7457,4.7479,4.7465,4.7456,4.746,4.7457,4.7462,4.7481,4.7481,4.7482,4.7482,0,4.6767,4.6787,4.6837,4.6896,4.6937,4.6984,4.7032,4.7056,4.7106,4.7145,4.7203,4.7241,4.7315,4.7372,4.7433,4.7465,4.7483,4.7486,4.7496,4.7487,4.7473,4.7484,4.742,4.7484,4.7484,4.7484,4.7484,4.7484,4.6787,4.6822,4.6878,4.6934,4.6975,4.702,4.7058,4.7097,4.7147,4.7212,4.7233,4.7294,4.7348,4.7431,4.7465,4.7513,4.7513,4.7526,4.7529,4.7532,4.7533,4.7465,4.7524,4.7524,4.7524,4.7524,4.7524,0,4.6825,4.6864,4.6915,4.6983,4.7027,4.7041,4.7096,4.7132,4.7186,4.7235,4.7284,4.7352,4.7409,4.7459,4.7518,4.7548,4.7557,4.7562,4.756,4.7568,4.7529,4.7516,4.7553,4.7553,4.7553,4.7553,4.7553,4.7553,4.6851,4.6911,4.6939,4.7021,4.706,4.7121,4.7151,4.7194,4.7234,4.731,4.7358,4.7391,4.7442,4.7506,4.7559,4.7572,4.7593,4.7597,4.7612,4.7574,4.7571,4.7567,4.7555,4.7601,4.7601,4.7648,4.7648,4.7648]}]]